Showing default

QIANFAN-197, 69415

Orbit data source: Space-Track

QIANFAN-197, 69415 is a Chinese payload satellite in LEO that was launched on Fri, 05 Jun 2026 UTC via a CHANG ZHENG 8 launch vehicle from the Wenchang Satellite Launch Center (WSC). Payload-class satellites include a variety of spacecraft equipped with specific instruments for various scientific and technological missions. These include communications satellites like Starlink; space stations such as the ISS; scientific satellites like the Hubble; Earth observation satellites from companies like Planet Labs, Umbra, and HawkEye 360; GPS; miniature CubeSats for education and research; and military/defense satellites.

Loading next visibility...
Identifier
69415, 2026-125Q
Orbit
LEO
Country
Flag of CNCN / PRC
Related business
Manufacturer
SECM?
Mission
Operational spacecraft
Bus & Motor
QIANFAN, Unknown motor
Mass
267 kg wet, ~267 kg dry
Launch date (UTC)
2026-06-05 (2 weeks ago)
Launch vehicle
CHANG ZHENG 8
Launch site
Wenchang Satellite Launch Center (WSC)
Object type
Payload
Rocket body
Debris
Shape & HBR
Unknown
Radar Cross Section
Large (>1 m²)

Expand to show TLE details & history
Last TLE update: 1 day ago

TLE from 1 day ago
0 QIANFAN-197
1 69415U 26125Q   26170.77375360 -.01921916  00000-0 -10034+1 0  9994
2 69415  88.9949 280.1479 0009001 172.9343 187.1975 14.18379903  2065
Epoch: 2026-06-19T18:34Z
TLE epoch observation values (Epoch: 2026-06-19T18:34:12.311Z)
Latitude
0.00003°
Longitude
93.59869°
Altitude
840.327 km
Speed
7.429 km/s
True Right ascension
18h 40m 35s
True Declination
0° 00' 00"
Sunlit
Object was in full shadow at epoch
Visualization orbit readout
Latitude
Unknown
Longitude
Unknown
Altitude
Unknown
Speed
Unknown
Apparent Right ascension
Unknown
Apparent Declination
Unknown
Sunlit
N/A
Visualization observer readout
Local Sidereal Time
07:11:59
Azimuth
Unknown
Elevation
Unknown
Doppler factor
Unknown
Orbital elements
Apogee altitude
834.277 km
Perigee altitude
821.305 km
Semi-major axis
7,205.928 km
Eccentricity
0.0009
Inclination
88.9949°
RAAN
280.1479°
Arg. of periapsis
172.9343°
True anomaly
187.18459°
Mean anomaly
187.1975°
Eccentric anomaly
187.19104°
Mean motion
3.5482 °/min
Orbital period
101.46 mins
BSTAR
-1.0034
Loading maneuver chart data...
Computing Atmospheric mass density...
Loading historical data...
Loading historical data...
Loading historical data...
Loading historical data...
Loading historical data...
Loading historical data...
Loading historical data...

Documentation

Showing up to 5 results
|